Temp
66 67 66 66 58 51 47 57 60 65 72 73 76 76 76 77 76 70 80 83 79 78 79 80 80 80 81 80 80 79 79 79 79 79 79 79 79 79 79 79 80 81 81 81 81 81 80 80 80
67 70 66 58 51 45 50 57 59 64 72 75 77 77 76 77 83 77 76 81 81 79 78 78 79 80 80 80 79 79 79 79 79 79 79 79 79 79 79 79 80 81 81 81 81 80 80 80 80
68 68 60 53 44 48 49 61 61 69 73 71 74 80 78 79 83 79 80 81 80 79 79 78 79 79 79 79 79 79 79 79 79 79 79 79 79 79 79 79 80 81 81 81 81 80 80 80 79
65 63 57 48 46 52 55 58 64 67 72 73 74 72 80 87 84 82 82 81 79 78 79 79 79 79 79 79 79 79 79 79 79 79 79 79 79 79 79 79 79 80 81 81 80 79 79 79 79
60 55 46 40 44 52 59 61 62 64 66 70 72 71 74 79 81 80 80 81 78 76 79 79 79 79 79 79 79 78 78 78 78 79 79 79 79 78 78 79 79 80 80 80 79 79 78 78 78
54 52 43 41 48 55 59 60 61 61 66 70 70 71 74 77 78 79 80 79 79 77 77 78 79 79 79 79 78 78 78 78 78 78 78 78 78 78 78 79 79 79 79 79 79 78 78 77 77
52 47 40 40 47 52 60 64 60 62 62 67 73 67 73 77 76 79 79 78 78 77 78 79 78 78 79 78 78 78 77 77 78 78 78 78 78 78 78 78 79 78 78 78 78 78 77 77 77
52 49 39 41 46 48 60 64 62 63 66 75 76 66 66 80 83 78 78 76 75 77 78 79 78 77 77 77 78 77 77 77 77 77 78 78 78 78 78 77 78 78 78 78 77 77 77 77 76
55 44 37 42 48 52 57 57 66 71 67 69 73 73 79 82 79 74 71 73 74 77 78 80 79 76 75 76 77 77 78 78 77 77 77 76 75 76 78 77 78 78 78 78 77 77 77 76 76
50 41 44 51 54 54 56 58 62 64 65 64 69 75 80 82 73 72 70 72 75 75 77 79 79 76 74 77 76 75 76 76 75 75 75 74 74 75 76 77 78 78 78 77 77 77 77 77 73
47 45 52 55 58 58 57 58 63 61 59 63 64 71 74 76 73 73 73 74 74 75 79 79 77 75 75 77 75 75 75 75 74 74 75 74 76 77 76 74 76 75 77 75 76 75 74 73 72
44 54 54 55 59 55 57 61 59 61 62 68 69 71 71 71 68 74 74 75 73 75 79 79 79 75 75 76 75 75 75 75 75 75 75 75 75 75 73 74 74 74 73 72 73 72 72 72 72
45 51 54 58 55 54 58 57 58 59 66 68 69 69 67 68 68 72 76 75 74 72 77 79 79 78 77 74 75 75 74 74 74 74 75 74 73 74 74 73 74 73 72 71 71 71 71 71 72
52 52 53 54 53 53 53 56 56 60 66 65 65 64 65 66 68 67 71 73 74 73 74 78 77 78 79 75 74 74 74 73 73 73 73 73 72 72 72 71 72 71 70 70 71 70 70 70 71
51 45 50 51 53 51 54 50 53 61 62 61 62 63 65 66 68 67 69 72 76 76 74 75 77 77 75 74 74 75 74 73 72 73 73 72 70 70 70 70 70 70 70 70 69 69 69 69 71
45 41 36 47 52 55 49 44 55 61 58 59 60 63 64 64 66 68 69 70 75 75 74 75 78 76 74 74 74 75 75 74 73 73 72 71 70 69 69 69 69 70 70 69 68 68 69 69 70
39 35 37 43 52 51 48 44 54 61 59 56 59 59 61 63 64 67 68 70 70 77 75 74 74 75 73 73 75 75 75 76 73 73 72 71 71 70 70 70 70 69 69 69 69 68 69 69 69
36 36 38 38 47 48 44 46 51 56 56 56 58 59 58 61 64 67 68 70 71 73 77 74 73 73 73 72 73 75 76 75 73 72 72 72 72 71 70 70 70 70 69 68 68 68 68 70 70
43 39 38 45 49 44 46 46 50 55 55 55 54 56 55 58 65 64 67 68 69 68 74 73 72 73 72 71 70 71 70 73 72 72 72 71 71 72 71 71 70 69 69 68 68 68 68 68 70
41 38 37 43 48 46 44 45 51 53 53 55 55 54 57 56 61 64 63 65 65 66 72 72 72 72 73 73 72 71 70 71 72 71 71 72 71 71 71 71 70 69 69 68 68 68 67 68 70
39 38 38 38 45 45 41 41 43 52 52 55 57 56 55 55 55 57 60 59 61 63 69 71 72 72 73 73 71 68 69 67 68 69 70 70 72 71 72 71 71 69 70 69 68 68 68 67 68
34 44 43 41 36 31 42 28 37 43 47 49 49 48 52 53 55 56 58 59 60 63 69 72 72 72 73 72 69 70 69 69 71 72 71 71 72 72 72 72 72 71 71 69 69 69 69 70 68
39 46 42 41 34 30 33 26 33 40 40 44 47 50 52 55 55 56 58 59 62 63 63 71 71 71 73 72 72 71 71 72 70 70 70 71 70 72 73 72 72 71 71 70 70 67 68 70 69
48 41 39 33 29 19 30 29 30 37 40 43 47 49 50 52 54 55 59 61 62 63 62 67 70 70 72 72 71 71 71 72 70 71 70 71 70 71 72 73 72 72 71 70 70 68 69 69 69
40 31 19 20 20 21 34 31 31 42 46 45 45 47 49 49 50 52 54 57 59 60 61 62 67 68 71 71 72 72 71 70 69 70 72 70 70 70 71 72 72 72 71 71 70 68 69 69 68
34 32 22 14 17 23 37 27 33 46 47 48 48 47 48 47 48 49 52 55 57 59 59 59 65 67 70 71 71 72 73 73 72 71 72 72 73 72 72 72 72 72 72 71 70 70 70 70 70
35 32 39 32 32 28 27 34 42 46 44 44 44 44 43 45 46 48 52 54 56 57 57 58 59 66 68 70 72 72 73 73 72 70 70 72 72 73 71 71 71 72 71 71 70 71 69 70 69
38 42 31 28 23 21 27 29 29 37 37 39 40 40 42 45 45 47 49 52 54 55 56 56 57 59 64 68 70 72 73 73 73 71 71 71 71 72 70 70 70 70 71 71 70 71 69 68 69
33 32 36 35 31 25 22 28 39 37 38 36 39 41 41 43 45 45 47 50 51 52 54 55 55 56 57 60 65 69 71 72 70 70 71 71 72 72 71 71 70 70 70 71 69 69 68 68 67
40 36 36 30 26 32 30 31 43 40 39 40 39 42 43 44 46 47 47 48 48 48 51 53 53 54 56 57 60 64 69 69 69 70 69 70 71 72 72 72 71 71 70 70 70 68 68 68 67
MSLP
1010.73 1010.76 1010.89 1011.22 1012.61 1012.88 1012.00 1010.24 1008.69 1007.67 1006.53 1006.02 1005.59 1004.90 1004.50 1004.05 1004.16 1003.99 1002.90 1003.46 1003.38 1003.44 1004.10 1005.35 1006.37 1006.66 1006.86 1007.23 1007.63 1008.18 1008.66 1009.09 1009.54 1010.07 1010.64 1011.16 1011.65 1012.12 1012.50 1012.90 1013.19 1013.47 1013.70 1013.91 1014.13 1014.35 1014.56 1014.81 1015.10
1010.77 1010.85 1011.28 1012.30 1013.18 1013.38 1011.59 1009.86 1008.84 1007.93 1007.07 1006.08 1004.96 1004.55 1004.18 1003.13 1003.00 1003.26 1003.45 1003.89 1004.10 1003.74 1004.15 1004.90 1005.82 1006.38 1006.66 1007.27 1007.72 1008.19 1008.62 1009.13 1009.63 1010.10 1010.72 1011.28 1011.78 1012.16 1012.56 1012.93 1013.28 1013.55 1013.77 1013.95 1014.20 1014.44 1014.69 1014.87 1015.06
1010.79 1010.98 1011.99 1013.09 1013.65 1013.06 1011.44 1009.86 1008.86 1008.04 1007.19 1006.62 1005.90 1004.74 1003.99 1003.14 1002.86 1002.86 1002.75 1003.44 1004.89 1004.00 1004.33 1005.05 1005.81 1006.30 1006.58 1007.06 1007.68 1008.36 1008.68 1009.02 1009.65 1010.21 1010.78 1011.31 1011.88 1012.23 1012.60 1012.90 1013.18 1013.53 1013.85 1014.06 1014.31 1014.51 1014.79 1014.97 1015.15
1011.09 1011.77 1013.35 1013.52 1013.54 1012.05 1010.97 1009.92 1009.16 1008.46 1007.56 1006.87 1006.32 1005.60 1004.01 1002.72 1002.93 1002.57 1002.76 1002.90 1004.79 1004.62 1004.41 1004.91 1005.82 1006.38 1006.71 1007.06 1007.60 1008.26 1008.85 1009.16 1009.58 1010.24 1010.87 1011.31 1011.73 1012.17 1012.62 1012.93 1013.18 1013.50 1013.86 1014.18 1014.46 1014.66 1014.86 1015.09 1015.24
1011.64 1012.78 1013.93 1014.24 1013.24 1011.92 1010.96 1010.23 1009.50 1008.91 1008.46 1007.57 1006.72 1005.80 1004.50 1003.86 1003.68 1003.87 1003.53 1003.27 1004.74 1006.27 1005.24 1005.12 1006.06 1006.28 1006.95 1007.33 1007.70 1008.36 1008.86 1009.38 1009.66 1010.05 1010.73 1011.32 1011.75 1012.06 1012.50 1012.91 1013.21 1013.47 1013.83 1014.19 1014.42 1014.66 1014.72 1015.04 1015.24
1012.78 1013.71 1014.69 1014.52 1013.09 1012.00 1011.09 1010.25 1009.60 1009.08 1008.71 1008.00 1007.06 1006.30 1004.91 1004.26 1004.01 1004.51 1005.04 1003.88 1004.89 1005.53 1006.19 1006.04 1006.14 1006.37 1006.71 1007.54 1007.98 1008.42 1009.06 1009.49 1010.00 1010.28 1010.73 1011.20 1011.68 1012.10 1012.52 1012.93 1013.22 1013.47 1013.83 1014.20 1014.38 1014.51 1014.77 1015.13 1015.33
1013.14 1014.36 1014.69 1014.12 1013.27 1012.31 1011.16 1010.49 1010.16 1009.61 1009.15 1008.31 1007.40 1006.72 1005.24 1004.45 1004.53 1004.46 1004.74 1005.46 1004.92 1005.46 1006.22 1006.45 1006.66 1006.98 1006.80 1007.30 1007.88 1008.46 1009.10 1009.64 1010.04 1010.59 1010.98 1011.42 1011.82 1012.29 1012.73 1013.08 1013.35 1013.53 1013.84 1014.24 1014.48 1014.60 1014.84 1015.12 1015.34
1013.48 1014.53 1014.95 1014.32 1013.57 1012.58 1011.44 1011.06 1010.58 1010.28 1009.14 1008.34 1007.67 1006.86 1005.98 1005.01 1004.71 1004.51 1004.76 1005.23 1005.66 1005.34 1006.02 1006.50 1006.71 1006.98 1007.26 1007.55 1007.89 1008.36 1009.02 1009.60 1010.11 1010.61 1011.14 1011.56 1011.96 1012.34 1012.72 1013.12 1013.38 1013.55 1013.86 1014.23 1014.47 1014.72 1014.94 1015.16 1015.31
1013.32 1014.79 1015.61 1014.72 1013.88 1012.93 1012.04 1011.64 1010.80 1009.94 1009.44 1008.99 1008.42 1007.64 1006.47 1005.46 1004.88 1005.29 1005.62 1005.46 1005.84 1005.66 1005.81 1006.40 1006.71 1006.80 1007.01 1007.64 1008.19 1008.39 1009.00 1009.54 1010.08 1010.70 1011.16 1011.68 1012.12 1012.49 1012.86 1013.10 1013.40 1013.59 1013.79 1014.19 1014.44 1014.74 1014.98 1015.25 1015.46
1013.76 1015.04 1014.88 1014.28 1013.84 1013.16 1012.48 1012.05 1011.23 1010.46 1009.68 1009.07 1008.31 1007.46 1006.50 1005.75 1005.48 1005.76 1005.92 1006.00 1005.34 1005.38 1005.47 1006.12 1006.76 1006.96 1007.08 1007.15 1007.83 1008.52 1008.92 1009.62 1010.16 1010.74 1011.28 1011.80 1012.22 1012.58 1012.87 1013.28 1013.45 1013.67 1013.82 1014.10 1014.51 1014.68 1014.90 1015.07 1015.43
1014.18 1014.52 1014.27 1013.82 1013.29 1012.86 1012.36 1011.94 1011.30 1010.65 1009.83 1009.61 1008.53 1007.50 1006.76 1005.96 1005.72 1005.52 1005.68 1005.68 1005.90 1006.35 1006.10 1006.18 1006.94 1007.20 1007.26 1007.44 1007.64 1008.27 1008.75 1009.34 1009.89 1010.57 1011.09 1011.69 1012.22 1012.67 1013.00 1013.39 1013.58 1013.75 1013.89 1014.28 1014.48 1014.72 1015.02 1015.34 1015.52
1014.22 1014.02 1013.89 1013.50 1012.92 1012.96 1012.46 1011.70 1011.28 1010.75 1010.05 1009.27 1008.56 1007.88 1007.03 1006.19 1005.78 1005.42 1005.03 1004.98 1005.32 1005.77 1005.86 1006.17 1006.91 1007.55 1007.64 1007.58 1007.94 1008.28 1008.69 1009.14 1009.66 1010.23 1010.83 1011.47 1012.03 1012.47 1012.96 1013.22 1013.50 1013.68 1013.81 1014.16 1014.52 1014.74 1015.06 1015.37 1015.46
1014.29 1014.03 1013.78 1013.46 1013.30 1012.91 1012.17 1011.61 1010.96 1010.22 1009.51 1008.93 1008.52 1007.97 1007.25 1006.40 1005.79 1005.02 1004.48 1004.08 1004.35 1005.18 1005.31 1005.52 1006.43 1007.19 1007.83 1008.13 1007.90 1008.27 1008.72 1009.08 1009.52 1010.03 1010.59 1011.24 1011.67 1012.11 1012.58 1012.96 1013.22 1013.55 1013.77 1014.03 1014.44 1014.78 1015.18 1015.40 1015.48
1014.12 1014.07 1013.82 1013.52 1013.22 1012.77 1012.21 1011.46 1011.13 1010.28 1009.21 1008.95 1008.43 1008.06 1007.35 1006.70 1005.75 1005.11 1004.64 1004.03 1003.75 1004.01 1004.72 1005.01 1005.82 1006.56 1007.18 1007.77 1008.10 1008.29 1008.70 1009.03 1009.56 1009.85 1010.18 1010.94 1011.42 1011.85 1012.43 1012.81 1013.15 1013.41 1013.63 1013.98 1014.36 1014.88 1015.28 1015.38 1015.40
1014.14 1014.34 1013.98 1013.54 1013.10 1012.74 1011.99 1011.49 1011.02 1009.99 1009.47 1009.08 1008.53 1007.95 1007.15 1006.43 1005.51 1005.05 1004.47 1003.86 1003.19 1002.77 1003.42 1004.19 1004.83 1006.04 1006.76 1007.21 1007.61 1008.02 1008.46 1008.86 1009.45 1009.60 1009.95 1010.57 1011.06 1011.55 1012.08 1012.59 1013.00 1013.22 1013.50 1013.86 1014.38 1014.95 1015.16 1015.33 1015.31
1014.88 1015.03 1014.88 1013.63 1013.12 1012.46 1012.36 1011.23 1010.64 1009.78 1009.46 1009.02 1008.51 1007.85 1007.17 1006.32 1005.55 1004.57 1003.97 1003.52 1003.03 1003.05 1002.55 1002.77 1003.72 1004.86 1006.13 1006.62 1007.24 1007.65 1007.94 1008.56 1009.19 1009.49 1009.83 1010.32 1010.65 1011.15 1011.76 1012.36 1012.73 1012.98 1013.39 1013.73 1014.30 1014.77 1015.08 1015.23 1015.44
1016.14 1015.96 1015.24 1014.12 1013.03 1012.67 1012.45 1011.45 1010.71 1009.85 1009.52 1009.10 1008.40 1007.68 1007.01 1006.28 1005.20 1004.08 1003.39 1002.75 1002.43 1002.29 1002.38 1002.20 1002.66 1003.57 1004.83 1006.01 1006.61 1007.22 1007.71 1008.09 1008.65 1009.14 1009.46 1009.84 1010.27 1010.74 1011.31 1011.92 1012.30 1012.67 1013.16 1013.68 1014.19 1014.52 1014.77 1015.10 1015.45
1016.73 1016.30 1015.29 1014.70 1013.40 1012.63 1012.56 1011.32 1010.52 1009.73 1009.26 1008.68 1008.29 1007.60 1006.89 1006.24 1005.11 1004.00 1002.94 1002.18 1001.48 1001.46 1001.51 1001.90 1001.78 1002.33 1003.38 1004.84 1005.99 1006.64 1007.24 1007.90 1008.44 1008.78 1008.92 1009.11 1009.71 1010.30 1010.82 1011.43 1011.98 1012.39 1013.02 1013.57 1014.00 1014.37 1014.80 1014.98 1015.23
1016.42 1016.25 1015.70 1014.58 1013.78 1013.26 1012.65 1011.26 1010.30 1009.31 1008.72 1008.13 1007.79 1007.30 1006.64 1005.90 1004.58 1003.84 1002.93 1001.91 1001.20 1000.69 1000.54 1001.04 1001.88 1002.14 1002.90 1003.82 1004.84 1005.78 1006.49 1007.38 1008.11 1008.52 1008.85 1008.84 1009.08 1009.62 1010.44 1011.03 1011.66 1012.12 1012.65 1013.07 1013.55 1014.08 1014.60 1014.99 1015.14
1016.36 1016.18 1015.48 1014.33 1013.82 1013.77 1012.46 1010.68 1009.72 1009.66 1008.93 1007.98 1007.46 1007.00 1006.46 1005.95 1005.06 1003.84 1003.00 1001.96 1001.12 1000.29 999.68 1000.23 1000.73 1001.64 1001.83 1002.72 1003.39 1005.17 1006.11 1006.72 1007.32 1007.88 1008.15 1008.43 1008.84 1009.20 1009.82 1010.46 1011.04 1011.75 1012.29 1012.79 1013.30 1013.59 1014.24 1014.62 1014.86
1016.34 1016.23 1015.79 1015.48 1013.68 1013.34 1012.64 1010.42 1010.48 1009.02 1008.84 1008.04 1007.52 1007.10 1006.75 1006.36 1005.54 1004.40 1003.42 1002.37 1001.16 1000.34 999.75 999.56 999.93 1000.80 1001.19 1001.84 1003.29 1004.09 1006.20 1006.06 1006.84 1006.91 1007.46 1007.71 1008.10 1008.60 1009.18 1009.92 1010.52 1011.07 1011.68 1012.28 1012.68 1013.14 1013.49 1014.14 1014.88
1016.26 1015.97 1016.00 1015.46 1015.48 1014.58 1013.86 1012.34 1011.02 1010.52 1009.78 1009.42 1008.89 1008.28 1007.86 1006.99 1005.95 1005.19 1003.94 1002.52 1001.38 1000.31 999.72 999.64 999.47 999.99 1000.60 1001.52 1002.57 1003.85 1003.70 1004.30 1004.67 1005.01 1006.26 1007.26 1007.67 1008.10 1008.58 1009.21 1009.87 1010.29 1010.98 1011.57 1011.97 1012.40 1012.93 1013.46 1014.25
1016.21 1016.07 1015.93 1015.67 1015.89 1015.61 1014.36 1014.37 1011.89 1011.31 1010.82 1010.68 1010.02 1009.33 1008.70 1007.89 1006.94 1005.78 1004.24 1002.99 1001.71 1000.35 999.76 999.11 999.40 999.75 1000.02 1000.63 1001.24 1002.14 1002.89 1003.33 1004.34 1005.10 1005.66 1006.16 1006.86 1007.22 1007.86 1008.50 1009.30 1009.89 1010.31 1010.78 1011.34 1011.95 1012.49 1012.97 1013.63
1016.01 1016.02 1015.71 1016.26 1016.49 1016.35 1014.90 1014.66 1012.64 1012.24 1011.98 1011.38 1010.68 1010.09 1009.42 1008.55 1007.64 1006.64 1004.90 1003.32 1001.84 1000.35 999.74 999.16 999.08 999.37 999.88 1000.20 1001.07 1001.27 1001.71 1002.62 1003.62 1004.40 1005.19 1005.71 1006.19 1006.82 1007.24 1007.77 1008.44 1009.02 1009.61 1010.07 1010.50 1011.23 1011.86 1012.51 1012.99
1016.49 1017.20 1017.84 1017.50 1017.33 1016.32 1014.97 1014.41 1012.40 1012.12 1012.08 1012.04 1011.71 1010.85 1010.00 1009.48 1008.70 1007.32 1005.57 1003.62 1002.29 1000.98 1000.57 999.84 998.95 999.14 999.45 999.87 1000.18 1000.84 1001.47 1002.20 1002.59 1003.10 1003.77 1004.78 1005.29 1006.08 1006.44 1006.99 1007.60 1008.15 1008.43 1009.15 1009.77 1010.51 1011.28 1011.91 1012.54
1017.44 1018.36 1019.58 1019.24 1018.17 1016.36 1014.81 1013.74 1011.81 1011.96 1012.26 1012.25 1012.02 1011.83 1011.07 1010.26 1009.71 1008.34 1006.79 1005.27 1003.46 1002.00 1001.51 1000.82 999.50 999.31 999.41 999.42 999.73 1000.28 1000.96 1001.62 1002.07 1002.62 1003.16 1003.66 1003.82 1004.16 1005.06 1006.13 1006.98 1007.50 1007.82 1008.52 1009.17 1009.95 1010.60 1011.16 1011.87
1017.47 1018.23 1018.77 1018.83 1017.81 1016.89 1014.68 1012.91 1011.74 1011.79 1012.06 1012.18 1012.24 1011.83 1011.28 1010.83 1010.11 1008.80 1007.59 1006.14 1004.26 1003.12 1002.46 1002.08 1000.73 999.81 999.80 999.75 999.65 999.74 1000.20 1000.72 1001.21 1001.83 1002.33 1002.98 1003.48 1003.85 1004.44 1004.96 1005.95 1006.82 1007.49 1008.07 1008.73 1009.36 1010.07 1010.66 1011.22
1017.40 1018.02 1018.58 1018.84 1018.16 1016.58 1014.28 1013.23 1012.40 1012.59 1012.72 1012.75 1012.10 1011.72 1011.10 1010.29 1009.21 1009.29 1008.26 1006.69 1005.31 1004.48 1003.42 1002.85 1002.12 1001.27 1000.44 1000.00 1000.03 1000.19 999.93 999.90 1000.29 1001.09 1001.74 1002.32 1002.89 1003.42 1004.14 1004.67 1005.21 1005.91 1006.68 1007.38 1008.13 1008.79 1009.45 1010.15 1010.75
1017.80 1017.93 1018.47 1018.55 1018.10 1016.87 1014.99 1013.18 1012.92 1013.52 1013.82 1013.74 1013.31 1012.67 1012.06 1011.00 1010.09 1009.36 1008.68 1007.73 1006.77 1005.38 1004.69 1003.47 1002.92 1002.26 1001.57 1000.92 1000.22 999.88 1000.02 1000.23 1000.56 1000.82 1001.25 1001.72 1002.22 1002.78 1003.44 1003.99 1004.60 1005.21 1005.94 1006.80 1007.82 1008.34 1008.86 1009.48 1010.30
1017.31 1017.60 1018.08 1018.04 1017.39 1016.73 1015.59 1013.15 1013.08 1013.53 1014.00 1014.04 1013.78 1013.06 1012.23 1011.70 1010.55 1009.78 1008.95 1008.30 1007.16 1006.72 1005.68 1004.65 1003.90 1003.14 1002.52 1001.91 1000.92 999.94 999.67 999.98 1000.29 1000.52 1000.84 1001.22 1001.75 1002.25 1002.78 1003.62 1004.41 1004.85 1005.65 1006.41 1007.31 1007.90 1008.60 1009.07 1009.70
Wind_Speed
4 2 2 5 5 6 4 7 3 3 6 3 6 4 7 5 6 7 7 9 15 21 21 21 22 21 21 21 21 22 21 21 22 21 21 21 21 20 19 18 16 15 16 14 13 12 11 11 11
2 3 5 3 6 1 7 4 1 1 5 10 9 6 7 10 4 2 4 3 14 18 18 18 23 22 23 21 20 20 22 22 22 22 21 21 20 20 19 18 15 15 15 14 13 12 11 12 12
0 3 5 5 4 7 5 3 2 6 8 4 7 5 5 6 2 7 4 15 10 16 17 17 22 22 23 23 21 20 20 21 21 21 21 21 20 19 18 17 16 15 15 14 13 12 11 11 11
3 5 5 5 7 8 6 3 7 9 6 9 5 8 7 5 8 1 12 19 13 13 16 20 22 21 22 23 22 21 20 21 22 21 21 20 20 19 17 16 15 15 15 14 12 11 10 10 9
5 3 4 0 6 6 4 3 3 7 5 5 6 6 7 5 10 6 10 16 14 4 8 17 20 21 21 22 23 21 21 20 21 22 22 20 19 19 17 16 15 15 14 14 12 11 9 9 8
5 4 3 4 6 3 5 5 3 1 5 12 7 7 7 3 6 4 1 12 11 11 8 11 17 20 22 21 21 21 20 20 19 20 21 21 19 18 17 16 14 14 13 13 12 10 8 7 7
7 5 4 4 3 3 2 6 4 5 5 7 8 9 8 9 2 6 6 2 11 11 10 10 11 13 20 21 21 21 20 19 19 18 19 18 18 16 15 15 13 12 12 11 9 8 7 6 5
6 5 2 3 4 5 2 11 5 7 11 6 4 6 10 21 14 7 7 7 7 11 11 13 11 10 11 12 21 21 20 19 18 17 17 17 16 16 15 13 12 12 11 11 9 7 5 4 2
4 6 2 4 5 8 6 9 3 7 6 5 7 6 15 15 5 6 3 6 7 10 13 15 15 11 11 10 13 18 21 20 18 16 16 13 7 9 12 11 12 12 11 10 8 6 5 3 1
6 4 6 3 4 7 7 9 13 10 16 4 11 11 13 16 4 7 7 10 15 16 16 15 15 12 11 11 12 10 12 9 9 9 9 6 6 7 7 9 12 11 10 9 7 6 5 3 1
1 4 4 5 5 5 8 8 7 12 10 11 13 19 14 14 6 8 10 9 10 7 12 13 11 10 12 10 9 6 6 7 7 10 11 8 8 7 6 3 4 3 7 2 4 3 1 1 0
2 5 4 5 6 6 13 10 7 10 12 10 11 11 8 16 11 11 13 11 9 9 14 12 11 8 10 7 7 8 7 8 7 10 14 9 7 9 7 6 6 6 3 4 3 2 1 1 2
4 4 3 7 9 8 10 8 10 11 12 8 8 11 10 14 12 10 12 11 12 12 14 14 12 12 9 5 7 8 8 8 8 9 12 8 8 9 9 7 7 6 5 3 3 2 1 1 3
3 5 7 7 8 5 6 10 7 6 10 7 8 10 11 11 13 9 6 12 15 14 17 15 14 14 13 10 8 7 7 8 7 8 10 13 8 8 9 8 8 6 4 3 2 2 2 2 2
3 4 6 4 5 6 4 6 8 10 8 9 10 10 10 10 13 11 9 14 16 17 18 19 18 14 13 12 10 9 7 8 8 8 11 14 10 9 8 6 6 5 4 4 3 3 1 2 1
4 3 5 6 5 8 2 13 8 14 7 15 12 11 10 12 10 14 11 10 11 12 18 20 19 18 15 12 10 9 9 8 7 7 8 12 11 10 7 6 6 5 4 4 3 3 3 3 1
6 6 6 8 5 6 4 11 10 16 14 13 12 11 10 10 13 15 12 12 9 12 17 20 21 22 19 12 11 10 9 8 8 8 8 12 11 11 9 7 6 6 5 4 4 2 3 2 2
9 7 7 8 7 5 8 14 8 10 12 15 15 14 9 11 16 16 15 14 14 12 18 16 18 21 21 13 10 9 9 9 8 9 10 12 9 11 9 7 7 6 5 4 3 3 1 2 3
6 6 10 13 8 5 14 19 16 16 15 18 13 13 10 11 15 11 14 13 16 9 14 16 17 18 15 14 13 12 11 9 9 8 10 11 11 12 11 7 7 7 7 7 7 3 4 1 3
4 6 8 9 5 9 12 23 19 18 15 18 16 11 13 8 14 15 11 12 13 10 15 18 20 19 18 14 14 9 10 8 8 7 9 11 11 11 11 9 8 8 6 5 7 5 3 2 5
3 6 6 10 17 6 6 17 6 17 8 14 16 12 10 8 11 11 12 12 13 9 11 18 21 21 21 20 11 7 7 5 6 9 9 11 14 12 12 11 9 9 7 7 6 7 7 4 3
4 2 7 15 7 7 7 16 2 9 14 12 14 12 12 10 11 10 14 13 13 13 9 13 19 21 19 19 16 19 15 12 11 9 9 10 13 12 13 12 11 10 7 8 8 6 5 5 7
8 9 13 13 7 4 1 1 7 7 12 18 17 18 18 17 14 15 15 15 13 12 10 10 15 17 19 20 20 16 14 11 6 7 12 13 12 14 14 13 12 10 7 9 8 7 6 3 5
10 5 10 3 2 2 4 1 4 4 4 12 17 17 18 21 21 17 16 15 15 16 16 6 13 14 17 18 17 20 19 14 9 11 10 9 8 9 12 13 12 11 9 9 8 8 9 8 4
10 8 6 8 5 6 3 5 8 3 4 10 16 17 17 18 19 20 21 20 19 21 19 13 8 13 16 17 17 17 15 13 15 14 12 13 9 8 11 13 13 11 11 10 9 9 8 9 7
3 3 3 5 4 9 10 6 7 5 7 10 12 12 16 17 16 18 20 19 17 20 21 19 7 9 13 16 18 15 16 10 10 11 9 10 11 12 13 12 11 12 11 10 9 7 8 9 8
2 1 3 6 5 5 4 7 2 6 12 16 14 15 16 16 16 18 19 18 18 19 20 20 16 7 7 12 14 17 15 15 12 11 10 9 8 7 10 13 12 11 10 11 10 8 9 9 9
0 1 2 2 5 6 6 6 5 11 15 18 22 21 21 20 21 17 18 19 19 18 18 19 18 16 12 4 6 10 13 15 13 12 13 12 10 10 11 12 13 12 12 11 12 8 8 10 8
2 1 1 4 3 4 6 6 3 5 10 13 17 19 18 19 16 17 17 17 15 18 17 18 18 17 16 13 9 6 10 9 7 9 10 11 12 12 13 13 13 13 13 12 10 8 12 12 10
5 4 3 3 3 5 4 7 5 5 7 15 18 17 18 15 16 14 17 16 17 16 17 16 17 16 15 14 12 9 7 8 7 9 10 10 12 11 12 11 11 11 11 10 12 11 10 12 13
Wind_Direction
348 353 80 43 52 61 259 258 264 6 347 12 266 256 235 226 186 241 334 182 145 148 150 155 159 155 145 139 135 133 133 132 132 132 135 140 144 145 144 144 146 145 142 140 139 137 134 129 122
340 114 46 81 95 112 258 250 260 231 335 322 311 344 309 276 185 319 115 139 164 147 149 154 158 155 146 143 139 138 136 135 135 136 140 143 146 147 146 146 147 147 145 146 143 142 138 134 130
223 51 85 99 126 204 230 222 123 316 309 322 334 295 269 279 223 187 221 139 174 152 152 155 157 154 148 146 143 143 141 138 137 139 143 146 149 149 148 147 150 151 149 151 146 147 142 140 138
83 17 38 98 220 255 199 154 346 351 337 357 320 309 308 281 339 166 144 138 164 164 156 157 158 154 150 147 147 148 147 144 143 145 148 150 151 150 149 150 151 153 152 152 151 149 148 146 145
39 61 61 268 255 278 327 330 344 327 287 299 320 285 277 20 11 51 148 137 154 183 160 153 158 152 152 150 149 151 151 151 150 150 152 154 153 152 150 150 154 155 154 153 156 156 161 148 151
48 90 77 242 250 326 306 241 263 307 344 311 344 304 274 259 48 83 183 140 150 152 165 161 159 157 152 153 152 152 154 154 155 153 155 156 156 153 151 151 157 158 156 155 162 167 166 156 158
110 89 219 280 271 10 308 352 8 344 348 301 313 325 276 5 129 132 150 189 146 145 161 167 168 167 155 155 155 155 156 156 155 156 156 157 156 153 151 153 159 160 157 156 165 175 167 170 173
99 86 36 301 338 286 337 358 331 1 305 276 342 298 307 313 303 143 140 139 165 152 166 174 173 169 159 159 158 156 158 157 156 156 157 158 157 156 155 156 163 164 163 161 174 177 178 192 195
120 56 17 282 332 294 318 336 329 277 275 320 295 279 287 310 21 96 96 145 170 173 173 183 183 170 159 155 165 159 161 159 158 159 159 153 153 157 163 164 169 171 174 178 181 178 188 208 286
81 110 219 219 274 285 303 324 317 326 315 269 315 302 293 304 153 172 195 208 191 190 183 186 188 177 163 159 162 160 161 159 156 155 153 143 150 159 159 173 175 181 190 186 179 189 194 190 132
103 167 223 263 275 297 297 300 303 307 303 303 300 304 310 305 228 195 208 210 219 227 196 190 189 179 174 169 161 161 158 157 153 155 158 157 167 181 175 154 179 176 198 184 178 201 191 151 219
10 256 247 275 294 327 306 307 293 272 286 277 291 289 300 309 288 234 209 200 175 201 201 189 190 190 190 168 168 165 162 163 165 169 167 166 174 182 181 177 185 191 191 181 182 197 179 183 256
165 246 224 285 299 280 282 278 279 288 286 289 311 314 312 311 305 292 225 185 168 192 201 190 188 192 189 193 174 170 170 166 167 166 172 170 176 180 185 185 186 199 195 187 189 181 155 229 276
260 291 287 278 284 259 266 294 330 295 291 298 303 298 300 296 301 308 248 214 190 182 194 188 192 194 193 188 183 175 168 162 168 170 172 180 177 181 188 185 189 202 186 178 187 154 168 239 266
249 300 328 282 280 285 323 308 291 277 300 297 287 288 287 286 299 292 266 240 213 194 183 189 185 188 194 190 180 175 173 167 176 177 175 183 177 178 183 179 186 197 178 173 158 122 163 242 246
349 56 355 269 278 266 85 296 273 289 305 301 297 284 288 292 285 298 294 254 241 227 190 180 185 182 190 186 183 183 175 172 185 188 181 184 181 171 169 175 190 175 178 180 155 160 200 230 156
354 275 267 300 236 277 216 293 281 295 297 286 291 285 280 292 296 291 286 288 235 229 206 192 182 182 182 180 181 187 186 185 190 190 187 187 182 173 180 186 186 171 176 186 175 175 173 168 132
289 299 271 263 298 299 291 283 283 286 287 280 279 284 276 287 284 285 285 287 282 223 208 200 188 181 175 169 174 184 192 197 198 198 193 180 182 180 181 183 175 172 172 176 165 180 121 125 160
264 259 258 284 278 319 299 286 285 279 278 286 270 271 270 266 281 281 285 286 289 239 202 189 186 183 174 175 178 184 195 194 199 196 200 185 180 185 185 183 171 170 179 192 180 146 155 140 148
286 286 277 281 295 301 293 288 282 294 276 271 270 268 276 300 298 299 293 298 300 260 193 185 185 184 183 183 181 187 190 194 190 188 192 190 187 187 186 183 181 177 179 164 176 157 131 124 171
282 261 292 288 316 228 290 284 342 312 277 285 292 278 297 300 300 314 311 309 309 295 206 186 185 187 187 185 174 129 165 129 177 192 198 195 190 188 184 189 185 178 180 184 185 176 161 145 176
308 278 305 306 334 302 71 291 358 342 353 354 352 350 342 322 330 326 318 320 317 319 267 210 188 187 189 181 177 184 181 180 210 197 187 198 193 188 189 189 190 185 180 184 188 181 170 141 159
249 305 273 282 269 336 272 265 274 5 359 347 347 350 348 344 336 329 327 320 318 329 304 214 199 194 186 185 187 183 188 195 179 182 188 184 191 188 190 187 189 195 183 190 184 161 162 162 149
295 336 320 59 102 22 238 134 275 5 329 343 344 343 344 341 338 332 331 333 345 0 355 249 195 195 196 186 192 190 191 189 169 176 181 193 178 188 191 191 192 194 186 186 181 175 177 179 151
18 18 342 353 1 234 222 315 245 211 39 30 338 333 337 334 335 337 338 344 352 3 358 324 198 196 192 192 191 195 194 193 188 178 179 177 169 186 193 188 193 194 186 184 175 170 176 178 174
336 101 146 283 282 291 280 235 262 133 56 6 351 329 331 333 334 340 336 333 348 359 2 356 297 211 198 193 195 191 193 190 191 185 182 187 188 188 179 186 190 193 187 188 177 176 182 177 179
311 102 147 272 268 271 249 287 290 34 3 360 344 341 341 331 337 347 339 338 350 358 1 359 1 328 230 218 203 197 191 193 189 183 176 184 187 177 177 178 180 188 186 190 181 182 178 173 171
231 205 16 325 294 283 271 273 249 1 350 345 347 342 339 336 341 350 343 343 355 351 352 356 0 6 355 275 226 221 212 200 186 178 186 182 182 175 177 179 181 182 189 189 187 186 168 164 173
336 168 225 258 222 285 302 258 91 29 358 342 336 331 335 331 335 341 343 344 337 349 347 349 353 355 353 352 326 220 214 213 200 184 184 180 178 178 180 187 186 188 190 190 186 180 167 169 163
192 189 169 256 274 253 267 276 110 71 356 353 336 326 327 329 331 335 340 341 343 339 339 344 342 343 345 338 332 287 189 191 198 193 179 174 183 184 184 184 192 191 194 186 186 179 187 175 168